COSMOS 2251 DEB, 34297

Orbit data source: Space-Track

COSMOS 2251 DEB, 34297 is space debris in LEO originally from a launch on Wed, 16 Jun 1993 UTC launched from the Plesetsk Missile And Space Complex (PKMTR). The debris from Iridium 33, an American commercial communications satellite, has been tracked extensively since its accidental collision with the defunct Russian satellite Cosmos 2251 in 2009. This event, occurring at high speed in low Earth orbit (LEO), generated thousands of pieces of space debris, significantly increasing the risk of further collisions. The Iridium 33 debris cloud has impacted space traffic management and orbital debris mitigation strategies, making it a subject of ongoing study in space situational awareness.

Loading next visibility...
Identifier
34297, 1993-036MT
Orbit
LEO
Country
Flag of CISCIS
Related business
Manufacturer
Unknown
Mission
Spacecraft
Bus & Motor
Unknown
Mass
Unknown
Launch date (UTC)
1993-06-16 (33 years ago)
Launch vehicle
Unknown
Launch site
Plesetsk Missile And Space Complex (PKMTR)
Object type
Payload
Rocket body
Debris
Shape & HBR
Unknown shape, 0.1 m
Radar Cross Section
Small (<0.1 m²)

Expand to show TLE details & history
Last TLE update: 1 day ago

TLE from 1 day ago
0 COSMOS 2251 DEB
1 34297U 93036MT  26145.28611985  .00000248  00000-0  92807-4 0  9998
2 34297  74.0485 343.8842 0016985  14.5584 163.7565 14.36760947904130
Epoch: 2026-05-25T06:52Z
TLE epoch observation values (Epoch: 2026-05-25T06:52:00.755Z)
Latitude
1.46615°
Longitude
177.58803°
Altitude
783.314 km
Speed
7.456 km/s
True Right ascension
10h 53m 52s
True Declination
1° 27' 27"
Sunlit
Object was in daylight at epoch
Visualization orbit readout
Latitude
Unknown
Longitude
Unknown
Altitude
Unknown
Speed
Unknown
Apparent Right ascension
Unknown
Apparent Declination
Unknown
Sunlit
N/A
Visualization observer readout
Local Sidereal Time
17:18:11
Azimuth
Unknown
Elevation
Unknown
Doppler factor
Unknown
Orbital elements
Apogee altitude
778.978 km
Perigee altitude
754.707 km
Semi-major axis
7,144.979 km
Eccentricity
0.0017
Inclination
74.0485°
RAAN
343.8842°
Arg. of periapsis
14.5584°
True anomaly
163.81083°
Mean anomaly
163.7565°
Eccentric anomaly
163.78368°
Mean motion
3.5937 °/min
Orbital period
100.18 mins
BSTAR
0.000092807

Documentation

Showing up to 5 results
|